H1 CPF 1 NER 2017 5 26 9 6461 glonass101 H2 0606203 9101 29672 2017 5 26 0 0 0 2017 5 29 23 45 0 900 1 1 0 0 0 H9 10 0 57899 0.00000 0 -3611419.684 13742257.978 21178727.509 10 0 57899 900.00000 0 -4897218.388 11379799.235 22284612.863 10 0 57899 1800.00000 0 -6418487.020 9029217.775 22957154.544 10 0 57899 2700.00000 0 -8146252.725 6755087.216 23182945.397 10 0 57899 3600.00000 0 -10040247.526 4616339.618 22957271.262 10 0 57899 4500.00000 0 -12050409.628 2663977.631 22284227.807 10 0 57899 5400.00000 0 -14118816.838 939128.128 21176663.742 10 0 57899 6300.00000 0 -16181972.970 -528479.947 19655949.602 10 0 57899 7200.00000 0 -18173352.066 -1721548.451 17751575.010 10 0 57899 8100.00000 0 -20026093.637 -2635709.276 15500581.032 10 0 57899 9000.00000 0 -21675734.801 -3279468.418 12946837.938 10 0 57899 9900.00000 0 -23062862.834 -3673597.149 10140182.423 10 0 57899 10800.00000 0 -24135574.597 -3849996.772 7135431.650 10 0 57899 11700.00000 0 -24851637.179 -3850086.399 3991294.566 10 0 57899 12600.00000 0 -25180256.851 -3722784.120 769203.594 10 0 57899 13500.00000 0 -25103380.407 -3522169.760 -2467908.307 10 0 57899 14400.00000 0 -24616473.423 -3304931.321 -5656858.967 10 0 57899 15300.00000 0 -23728742.795 -3127706.347 -8735469.776 10 0 57899 16200.00000 0 -22462795.268 -3044433.720 -11643793.397 10 0 57899 17100.00000 0 -20853748.008 -3103830.312 -14325290.796 10 0 57899 18000.00000 0 -18947830.925 -3347100.842 -16727933.571 10 0 57899 18900.00000 0 -16800541.807 -3805978.466 -18805209.889 10 0 57899 19800.00000 0 -14474433.874 -4501178.725 -20517014.963 10 0 57899 20700.00000 0 -12036630.216 -5441331.165 -21830409.923 10 0 57899 21600.00000 0 -9556170.045 -6622432.240 -22720236.218 10 0 57899 22500.00000 0 -7101297.635 -8027840.874 -23169575.816 10 0 57899 23400.00000 0 -4736806.231 -9628815.216 -23170050.706 10 0 57899 24300.00000 0 -2521545.695 -11385566.787 -22721958.277 10 0 57899 25200.00000 0 -506195.097 -13248787.113 -21834242.136 10 0 57899 26100.00000 0 1268610.160 -15161582.779 -20524300.654 10 0 57899 27000.00000 0 2773722.139 -17061738.621 -18817638.212 10 0 57899 27900.00000 0 3992438.403 -18884215.775 -16747366.488 10 0 57899 28800.00000 0 4920937.378 -20563781.941 -14353565.505 10 0 57899 29700.00000 0 5568175.463 -22037666.195 -11682516.289 10 0 57899 30600.00000 0 5955252.085 -23248129.693 -8785818.928 10 0 57899 31500.00000 0 6114270.275 -24144846.968 -5719411.816 10 0 57899 32400.00000 0 6086740.901 -24687000.058 -2542509.426 10 0 57899 33300.00000 0 5921597.130 -24844999.209 683522.573 10 0 57899 34200.00000 0 5672901.681 -24601758.681 3896334.678 10 0 57899 35100.00000 0 5397342.156 -23953474.184 7033782.438 10 0 57899 36000.00000 0 5151618.696 -22909868.478 10035115.215 10 0 57899 36900.00000 0 4989832.960 -21493893.308 12842142.862 10 0 57899 37800.00000 0 4960987.856 -19740898.051 15400358.504 10 0 57899 38700.00000 0 5106703.391 -17697297.322 17659996.193 10 0 57899 39600.00000 0 5459245.535 -15418790.656 19577002.873 10 0 57899 40500.00000 0 6039952.587 -12968206.059 21113905.594 10 0 57899 41400.00000 0 6858127.431 -10413055.135 22240556.430 10 0 57899 42300.00000 0 7910445.006 -7822900.078 22934739.535 10 0 57899 43200.00000 0 9180903.037 -5266641.085 23182627.203 10 0 57899 44100.00000 0 10641321.380 -2809836.757 22979074.368 10 0 57899 45000.00000 0 12252372.108 -512169.412 22327743.959 10 0 57899 45900.00000 0 13965099.788 1574838.276 21241058.736 10 0 57899 46800.00000 0 15722870.210 3409758.924 19739978.679 10 0 57899 47700.00000 0 17463666.854 4962766.135 17853606.627 10 0 57899 48600.00000 0 19122638.910 6216646.030 15618628.587 10 0 57899 49500.00000 0 20634793.122 7167271.383 13078598.826 10 0 57899 50400.00000 0 21937714.706 7823518.044 10283083.638 10 0 57899 51300.00000 0 22974200.830 8206627.553 7286680.968 10 0 57899 52200.00000 0 23694693.426 8349044.031 4147936.214 10 0 57899 53100.00000 0 24059406.498 8292776.294 928177.224 10 0 57899 54000.00000 0 24040056.352 8087357.071 -2309706.632 10 0 57899 54900.00000 0 23621120.502 7787488.655 -5502515.066 10 0 57899 55800.00000 0 22800571.653 7450477.875 -8587990.252 10 0 57899 56700.00000 0 21590056.218 7133572.044 -11506046.408 10 0 57899 57600.00000 0 20014510.949 6891311.308 -14199949.938 10 0 57899 58500.00000 0 18111235.606 6773011.379 -16617425.981 10 0 57899 59400.00000 0 15928462.700 6820484.188 -18711669.580 10 0 57899 60300.00000 0 13523486.398 7066092.968 -20442242.256 10 0 57899 61200.00000 0 10960430.853 7531223.151 -21775837.695 10 0 57899 62100.00000 0 8307752.475 8225232.216 -22686903.493 10 0 57899 63000.00000 0 5635580.853 9144920.931 -23158109.110 10 0 57899 63900.00000 0 3013008.768 10274546.263 -23180653.342 10 0 57899 64800.00000 0 505442.734 11586373.682 -22754407.767 10 0 57899 65700.00000 0 -1827878.000 13041744.337 -21887895.571 10 0 57899 66600.00000 0 -3936093.593 14592611.598 -20598107.950 10 0 57899 67500.00000 0 -5778578.271 16183482.612 -18910162.879 10 0 57899 68400.00000 0 -7326363.790 17753684.255 -16856813.541 10 0 57899 69300.00000 0 -8563075.664 19239859.991 -14477815.979 10 0 57899 70200.00000 0 -9485346.035 20578594.925 -11819167.714 10 0 57899 71100.00000 0 -10102688.251 21709061.310 -8932231.053 10 0 57899 72000.00000 0 -10436839.851 22575575.802 -5872756.738 10 0 57899 72900.00000 0 -10520602.257 23129963.295 -2699825.246 10 0 57899 73800.00000 0 -10396225.842 23333629.763 525275.543 10 0 57899 74700.00000 0 -10113407.507 23159258.072 3740216.158 10 0 57899 75600.00000 0 -9726983.974 22592055.847 6882813.903 10 0 57899 76500.00000 0 -9294416.531 21630502.389 9892222.178 10 0 57899 77400.00000 0 -8873171.932 20286561.997 12710098.733 10 0 57899 78300.00000 0 -8518108.796 18585352.651 15281731.101 10 0 57899 79200.00000 0 -8278979.078 16564281.384 17557097.873 10 0 57899 80100.00000 0 -8198149.997 14271679.646 19491845.272 10 0 57899 81000.00000 0 -8308643.136 11764992.784 21048159.839 10 0 57899 81900.00000 0 -8632574.791 9108596.418 22195519.658 10 0 57899 82800.00000 0 -9180065.349 6371328.542 22911308.434 10 0 57899 83700.00000 0 -9948666.203 3623838.405 23181279.158 10 0 57899 84600.00000 0 -10923331.260 935861.514 22999856.707 10 0 57899 85500.00000 0 -12076937.158 -1626465.960 22370271.592 10 0 57900 0.00000 0 -13371333.003 -4003141.238 21304520.423 10 0 57900 900.00000 0 -14758877.937 -6142570.807 19823151.700 10 0 57900 1800.00000 0 -16184402.778 -8003492.339 17954880.040 10 0 57900 2700.00000 0 -17587514.558 -9556459.915 15736034.283 10 0 57900 3600.00000 0 -18905146.074 -10784830.820 13209850.054 10 0 57900 4500.00000 0 -20074242.122 -11685210.448 10425620.121 10 0 57900 5400.00000 0 -21034467.259 -12267337.274 7437719.729 10 0 57900 6300.00000 0 -21730818.600 -12553413.198 4304527.005 10 0 57900 7200.00000 0 -22116030.889 -12576909.016 1087261.351 10 0 57900 8100.00000 0 -22152670.071 -12380897.712 -2151235.349 10 0 57900 9000.00000 0 -21814825.133 -12015988.856 -5347748.544 10 0 57900 9900.00000 0 -21089325.726 -11537954.593 -8439944.918 10 0 57900 10800.00000 0 -19976433.874 -11005150.894 -11367603.786 10 0 57900 11700.00000 0 -18489981.124 -10475846.054 -14073800.259 10 0 57900 12600.00000 0 -16656946.608 -10005571.753 -16506015.942 10 0 57900 13500.00000 0 -14516495.472 -9644610.158 -18617155.233 10 0 57900 14400.00000 0 -12118519.892 -9435723.784 -20366447.899 10 0 57900 15300.00000 0 -9521745.690 -9412223.540 -21720221.478 10 0 57900 16200.00000 0 -6791485.094 -9596455.204 -22652530.314 10 0 57900 17100.00000 0 -3997130.160 -9998766.249 -23145631.235 10 0 57900 18000.00000 0 -1209491.350 -10616994.308 -23190299.014 10 0 57900 18900.00000 0 1501908.990 -11436496.602 -22785977.941 10 0 57900 19800.00000 0 4071477.525 -12430717.174 -21940768.760 10 0 57900 20700.00000 0 6440017.920 -13562266.698 -20671252.994 10 0 57900 21600.00000 0 8556926.469 -14784468.857 -19002159.374 10 0 57900 22500.00000 0 10382027.442 -16043308.486 -16965879.475 10 0 57900 23400.00000 0 11886975.058 -17279700.523 -14601842.051 10 0 57900 24300.00000 0 13056166.773 -18431986.054 -11955757.687 10 0 57900 25200.00000 0 13887132.381 -19438552.557 -9078747.417 10 0 57900 26100.00000 0 14390384.489 -20240470.432 -6026370.850 10 0 57900 27000.00000 0 14588737.775 -20784037.154 -2857571.061 10 0 57900 27900.00000 0 14516125.921 -21023123.894 366445.107 10 0 57900 28800.00000 0 14215965.464 -20921227.227 3583371.226 10 0 57900 29700.00000 0 13739134.421 -20453140.244 6730989.085 10 0 57900 30600.00000 0 13141649.451 -19606172.568 9748358.484 10 0 57900 31500.00000 0 12482137.874 -18380866.959 12576987.055 10 0 57900 32400.00000 0 11819209.716 -16791180.567 15161958.300 10 0 57900 33300.00000 0 11208839.489 -14864120.688 17452996.504 10 0 57900 34200.00000 0 10701867.470 -12638847.361 19405447.902 10 0 57900 35100.00000 0 10341725.876 -10165277.144 20981158.879 10 0 57900 36000.00000 0 10162486.476 -7502243.215 22149233.498 10 0 57900 36900.00000 0 10187313.312 -4715285.809 22886654.623 10 0 57900 37800.00000 0 10427387.667 -1874162.714 23178755.226 10 0 57900 38700.00000 0 10881352.994 949818.148 23019529.093 10 0 57900 39600.00000 0 11535305.757 3686533.781 22411773.026 10 0 57900 40500.00000 0 12363335.119 6269735.093 21367055.866 10 0 57900 41400.00000 0 13328591.008 8639577.225 19905513.023 10 0 57900 42300.00000 0 14384837.196 10744884.536 18055468.869 10 0 57900 43200.00000 0 15478424.846 12545054.406 15852893.010 10 0 57900 44100.00000 0 16550603.365 14011518.868 13340700.184 10 0 57900 45000.00000 0 17540070.170 15128701.713 10567907.283 10 0 57900 45900.00000 0 18385650.137 15894430.362 7588664.385 10 0 57900 46800.00000 0 19028989.323 16319785.353 4461179.796 10 0 57900 47700.00000 0 19417146.584 16428394.715 1246561.890 10 0 57900 48600.00000 0 19504971.061 16255204.783 -1992397.508 10 0 57900 49500.00000 0 19257162.788 15844781.881 -5192472.070 10 0 57900 50400.00000 0 18649927.711 15249219.544 -8291255.321 10 0 57900 51300.00000 0 17672156.344 14525742.992 -11228393.785 10 0 57900 52200.00000 0 16326076.181 13734115.162 -13946773.133 10 0 57900 53100.00000 0 14627351.110 12933956.552 -16393633.002 10 0 57900 54000.00000 0 12604624.870 12182094.008 -18521588.436 10 0 57900 54900.00000 0 10298529.350 11530051.338 -20289538.485 10 0 57900 55800.00000 0 7760201.053 11021787.602 -21663445.356 10 0 57900 56700.00000 0 5049369.232 10691777.436 -22616970.773 10 0 57900 57600.00000 0 2232096.512 10563512.460 -23131959.363 10 0 57900 58500.00000 0 -621733.495 10648484.544 -23198762.095 10 0 57900 59400.00000 0 -3441077.551 10945691.130 -22816395.937 10 0 57900 60300.00000 0 -6156433.884 11441680.935 -21992538.831 10 0 57900 61200.00000 0 -8702472.854 12111136.055 -20743361.929 10 0 57900 62100.00000 0 -11020490.661 12917964.559 -19093203.641 10 0 57900 63000.00000 0 -13060587.351 13816857.006 -17074092.499 10 0 57900 63900.00000 0 -14783481.673 14755241.604 -14725128.221 10 0 57900 64800.00000 0 -16161890.462 15675556.732 -12091732.472 10 0 57900 65700.00000 0 -17181417.764 16517746.794 -9224782.839 10 0 57900 66600.00000 0 -17840918.670 17221878.267 -6179645.528 10 0 57900 67500.00000 0 -18152324.117 17730767.934 -3015123.885 10 0 57900 68400.00000 0 -18139934.635 17992514.529 207658.627 10 0 57900 69300.00000 0 -17839212.518 17962828.713 3426420.986 10 0 57900 70200.00000 0 -17295122.426 17607064.197 6578911.808 10 0 57900 71100.00000 0 -16560088.926 16901864.632 9604099.646 10 0 57900 72000.00000 0 -15691655.389 15836356.306 12443344.359 10 0 57900 72900.00000 0 -14749941.214 14412834.961 15041527.746 10 0 57900 73800.00000 0 -13795003.055 12646915.562 17348122.069 10 0 57900 74700.00000 0 -12884210.133 10567135.890 19318175.778 10 0 57900 75600.00000 0 -12069743.658 8214027.232 20913197.164 10 0 57900 76500.00000 0 -11396325.734 5638687.624 22101918.160 10 0 57900 77400.00000 0 -10899274.148 2900914.012 22860922.431 10 0 57900 78300.00000 0 -10602966.272 66968.371 23175124.273 10 0 57900 79200.00000 0 -10519778.594 -2792931.384 23038087.370 10 0 57900 80100.00000 0 -10649548.697 -5607292.589 22452175.378 10 0 57900 81000.00000 0 -10979584.590 -8306090.123 21428529.495 10 0 57900 81900.00000 0 -11485223.082 -10823455.466 19986871.547 10 0 57900 82800.00000 0 -12130915.332 -13100199.461 18155134.745 10 0 57900 83700.00000 0 -12871794.852 -15086062.305 15968927.948 10 0 57900 84600.00000 0 -13655662.046 -16741595.213 13470843.003 10 0 57900 85500.00000 0 -14425300.878 -18039593.514 10709618.462 10 0 57901 0.00000 0 -15121028.419 -18966020.138 7739176.460 10 0 57901 900.00000 0 -15683367.168 -19520380.071 4617552.217 10 0 57901 1800.00000 0 -16055725.278 -19715530.939 1405739.776 10 0 57901 2700.00000 0 -16186967.301 -19576937.851 -1833522.596 10 0 57901 3600.00000 0 -16033765.635 -19141407.185 -5037000.372 10 0 57901 4500.00000 0 -15562630.011 -18455354.484 -8142217.523 10 0 57901 5400.00000 0 -14751528.296 -17572683.098 -11088691.342 10 0 57901 6300.00000 0 -13591029.316 -16552366.131 -13819121.506 10 0 57901 7200.00000 0 -12084919.683 -15455836.685 -16280508.928 10 0 57901 8100.00000 0 -10250269.447 -14344298.770 -18425182.235 10 0 57901 9000.00000 0 -8116945.093 -13276073.697 -20211712.288 10 0 57901 9900.00000 0 -5726591.923 -12304094.223 -21605697.970 10 0 57901 10800.00000 0 -3131129.872 -11473651.318 -22580409.784 10 0 57901 11700.00000 0 -390826.747 -10820486.798 -23117280.913 10 0 57901 12600.00000 0 2427970.098 -10369309.756 -23206238.621 10 0 57901 13500.00000 0 5255349.371 -10132796.353 -22845872.015 10 0 57901 14400.00000 0 8020495.073 -10111112.138 -22043435.139 10 0 57901 15300.00000 0 10654380.468 -10291974.285 -20814687.159 10 0 57901 16200.00000 0 13092387.261 -10651248.948 -19183574.103 10 0 57901 17100.00000 0 15276744.051 -11154057.151 -17181759.003 10 0 57901 18000.00000 0 17158685.660 -11756342.088 -14848009.715 10 0 57901 18900.00000 0 18700246.594 -12406832.070 -12227455.819 10 0 57901 19800.00000 0 19875616.738 -13049317.452 -9370728.014 10 0 57901 20700.00000 0 20672004.945 -13625147.147 -6332995.424 10 0 57901 21600.00000 0 21089976.157 -14075841.402 -3172917.848 10 0 57901 22500.00000 0 21143248.835 -14345712.581 48468.483 10 0 57901 23400.00000 0 20857961.321 -14384385.169 3268911.694 10 0 57901 24300.00000 0 20271437.354 -14149109.963 6426130.764 10 0 57901 25200.00000 0 19430501.458 -13606775.460 9459006.185 10 0 57901 26100.00000 0 18389413.463 -12735531.437 12308752.796 10 0 57901 27000.00000 0 17207507.285 -11525955.287 14920052.957 10 0 57901 27900.00000 0 15946631.604 -9981710.048 17242128.646 10 0 57901 28800.00000 0 14668498.643 -8119663.873 19229731.760 10 0 57901 29700.00000 0 13432051.581 -5969462.687 20844033.236 10 0 57901 30600.00000 0 12290960.801 -3572570.375 22053393.148 10 0 57901 31500.00000 0 11291354.455 -980813.187 22833995.815 10 0 57901 32400.00000 0 10469879.532 1745514.194 23170336.305 10 0 57901 33300.00000 0 9852176.228 4539904.664 23055547.277 10 0 57901 34200.00000 0 9451831.524 7332164.733 22491557.970 10 0 57901 35100.00000 0 9269857.873 10051106.550 21489080.359 10 0 57901 36000.00000 0 9294720.803 12627294.080 20067420.815 10 0 57901 36900.00000 0 9502915.863 14995728.356 18254119.261 10 0 57901 37800.00000 0 9860071.685 17098358.658 16084421.468 10 0 57901 38700.00000 0 10322532.984 18886313.171 13600593.865 10 0 57901 39600.00000 0 10839356.288 20321754.040 10851093.979 10 0 57901 40500.00000 0 11354632.791 21379277.661 7889613.064 10 0 57901 41400.00000 0 11810038.164 22046800.414 4774010.618 10 0 57901 42300.00000 0 12147498.919 22325892.296 1565163.336 10 0 57901 43200.00000 0 12311859.653 22231544.961 -1674246.939 10 0 57901 44100.00000 0 12253435.468 21791385.373 -4880980.214 10 0 57901 45000.00000 0 11930339.050 21044370.399 -7992493.417 10 0 57901 45900.00000 0 11310482.025 20039020.168 -10948176.861 10 0 57901 46800.00000 0 10373164.781 18831267.717 -13690546.152 10 0 57901 47700.00000 0 9110187.254 17482018.606 -16166365.074 10 0 57901 48600.00000 0 7526434.203 16054525.856 -18327677.116 10 0 57901 49500.00000 0 5639911.266 14611692.616 -20132725.938 10 0 57901 50400.00000 0 3481231.665 13213416.956 -21546747.857 10 0 57901 51300.00000 0 1092576.533 11914090.283 -22542622.691 10 0 57901 52200.00000 0 -1473826.454 10760353.239 -23101372.510 10 0 57901 53100.00000 0 -4157641.643 9789201.287 -23212500.981 10 0 57901 54000.00000 0 -6892700.228 9026516.659 -22874169.197 10 0 57901 54900.00000 0 -9609517.119 8486085.192 -22093206.824 10 0 57901 55800.00000 0 -12237946.418 8169136.189 -20884960.216 10 0 57901 56700.00000 0 -14709867.081 8064421.763 -19272981.819 10 0 57901 57600.00000 0 -16961789.678 8148830.127 -17288567.608 10 0 57901 58500.00000 0 -18937278.613 8388505.576 -14970151.724 10 0 57901 59400.00000 0 -20589091.979 8740427.464 -12362569.582 10 0 57901 60300.00000 0 -21880952.699 9154381.954 -9516202.759 10 0 57901 61200.00000 0 -22788879.398 9575244.439 -6486020.987 10 0 57901 62100.00000 0 -23302023.281 9945477.912 -3330538.187 10 0 57901 63000.00000 0 -23422977.103 10207743.653 -110701.021 10 0 57901 63900.00000 0 -23167543.623 10307515.821 3111270.113 10 0 57901 64800.00000 0 -22563972.888 10195591.053 6273066.876 10 0 57901 65700.00000 0 -21651699.302 9830388.110 9313484.021 10 0 57901 66600.00000 0 -20479630.004 9179940.766 12173593.679 10 0 57901 67500.00000 0 -19104054.614 8223499.326 14797881.063 10 0 57901 68400.00000 0 -17586262.263 6952671.835 17135320.098 10 0 57901 69300.00000 0 -15989964.248 5372054.683 19140368.236 10 0 57901 70200.00000 0 -14378629.129 3499323.176 20773860.994 10 0 57901 71100.00000 0 -12812841.159 1364774.780 22003788.299 10 0 57901 72000.00000 0 -11347792.634 -989659.385 22805936.561 10 0 57901 72900.00000 0 -10031015.582 -3511897.048 23164382.736 10 0 57901 73800.00000 0 -8900448.831 -6141622.562 23071829.242 10 0 57901 74700.00000 0 -7982922.867 -8812562.387 22529771.316 10 0 57901 75600.00000 0 -7293127.672 -11455025.138 21548491.738 10 0 57901 76500.00000 0 -6833108.521 -13998601.125 20146881.054 10 0 57901 77400.00000 0 -6592312.480 -16374908.608 18352085.114 10 0 57901 78300.00000 0 -6548184.680 -18520271.259 16198985.397 10 0 57901 79200.00000 0 -6667289.753 -20378213.511 13729521.303 10 0 57901 80100.00000 0 -6906910.860 -21901667.496 10991867.354 10 0 57901 81000.00000 0 -7217057.730 -23054797.301 8039481.686 10 0 57901 81900.00000 0 -7542797.010 -23814362.525 4930045.382 10 0 57901 82800.00000 0 -7826803.888 -24170562.812 1724315.064 10 0 57901 83700.00000 0 -8012024.146 -24127327.731 -1515086.783 10 0 57901 84600.00000 0 -8044330.914 -23702040.510 -4724917.767 10 0 57901 85500.00000 0 -7875060.858 -22924708.830 -7842570.944 10 0 57902 0.00000 0 -7463320.161 -21836619.954 -10807312.792 10 0 57902 900.00000 0 -6777960.571 -20488539.532 -13561478.177 10 0 57902 1800.00000 0 -5799142.553 -18938533.061 -16051596.847 10 0 57902 2700.00000 0 -4519417.155 -17249504.269 -18229430.122 10 0 57902 3600.00000 0 -2944284.012 -15486556.080 -20052897.181 10 0 57902 4500.00000 0 -1092201.574 -13714286.547 -21486874.115 10 0 57902 5400.00000 0 1005948.791 -11994133.504 -22503851.963 10 0 57902 6300.00000 0 3307921.245 -10381878.583 -23084443.079 10 0 57902 7200.00000 0 5761641.030 -8925413.490 -23217728.406 10 0 57902 8100.00000 0 8307152.480 -7662859.550 -22901441.369 10 0 57902 9000.00000 0 10878898.449 -6621116.114 -22141987.105 10 0 57902 9900.00000 0 13408236.927 -5814895.292 -20954298.523 10 0 57902 10800.00000 0 15826091.739 -5246280.180 -19361533.395 10 0 57902 11700.00000 0 18065629.147 -4904822.191 -17394619.100 10 0 57902 12600.00000 0 20064851.448 -4768171.264 -15091654.055 10 0 57902 13500.00000 0 21769002.378 -4803211.018 -12497177.036 10 0 57902 14400.00000 0 23132686.753 -4967650.605 -9661317.571 10 0 57902 15300.00000 0 24121618.325 -5212006.567 -6638842.660 10 0 57902 16200.00000 0 24713924.771 -5481892.138 -3488116.664 10 0 57902 17100.00000 0 24900956.563 -5720518.890 -269992.787 10 0 57902 18000.00000 0 24687566.327 -5871306.805 2953344.031 10 0 57902 18900.00000 0 24091846.838 -5880494.154 6119562.033 10 0 57902 19800.00000 0 23144337.664 -5699638.192 9167373.927 10 0 57902 20700.00000 0 21886732.292 -5287901.770 12037712.501 10 0 57902 21600.00000 0 20370138.077 -4614029.277 14674868.751 10 0 57902 22500.00000 0 18652959.915 -3657927.636 17027571.012 10 0 57902 23400.00000 0 16798494.424 -2411784.023 19049984.262 10 0 57902 24300.00000 0 14872333.647 -880670.708 20702610.091 10 0 57902 25200.00000 0 12939685.728 917391.559 21953069.289 10 0 57902 26100.00000 0 11062723.966 2951917.789 22776750.904 10 0 57902 27000.00000 0 9298075.066 5180973.950 23157313.897 10 0 57902 27900.00000 0 7694552.073 7552684.148 23087030.100 10 0 57902 28800.00000 0 6291227.907 10007169.641 22566959.982 10 0 57902 29700.00000 0 5115931.435 12478840.957 21606955.923 10 0 57902 30600.00000 0 4184230.568 14898948.790 20225491.028 10 0 57902 31500.00000 0 3498946.494 17198287.424 18449315.082 10 0 57902 32400.00000 0 3050220.527 19309937.264 16312942.948 10 0 57902 33300.00000 0 2816131.366 21171930.535 13857984.386 10 0 57902 34200.00000 0 2763836.700 22729726.642 11132328.070 10 0 57902 35100.00000 0 2851190.145 23938391.471 8189195.995 10 0 57902 36000.00000 0 3028763.583 24764387.217 5086087.683 10 0 57902 36900.00000 0 3242187.106 25186895.982 1883636.484 10 0 57902 37800.00000 0 3434704.693 25198620.642 -1355597.653 10 0 57902 38700.00000 0 3549834.351 24806029.266 -4568372.997 10 0 57902 39600.00000 0 3534017.042 24029033.676 -7692021.583 10 0 57902 40500.00000 0 3339139.536 22900117.409 -10665688.750 10 0 57902 41400.00000 0 2924822.292 21462952.139 -13431530.638 10 0 57902 42300.00000 0 2260374.305 19770563.506 -15935844.931 10 0 57902 43200.00000 0 1326331.832 17883126.165 -18130112.329 10 0 57902 44100.00000 0 115516.317 15865483.068 -19971928.736 10 0 57902 45000.00000 0 -1366432.070 13784494.782 -21425810.949 10 0 57902 45900.00000 0 -3101066.400 11706330.780 -22463861.901 10 0 57902 46800.00000 0 -5057688.549 9693815.861 -23066284.672 10 0 57902 47700.00000 0 -7194423.686 7803941.497 -23221737.661 10 0 57902 48600.00000 0 -9459767.874 6085643.922 -22927526.526 10 0 57902 49500.00000 0 -11794543.845 4577938.850 -22189631.446 10 0 57902 50400.00000 0 -14134183.631 3308487.449 -21022571.096 10 0 57902 51300.00000 0 -16411244.041 2292649.978 -19449107.403 10 0 57902 52200.00000 0 -18558051.893 1533063.345 -17499797.609 10 0 57902 53100.00000 0 -20509370.922 1019757.532 -15212402.556 10 0 57902 54000.00000 0 -22204981.791 730803.835 -12631162.264 10 0 57902 54900.00000 0 -23592070.152 633466.448 -9805951.916 10 0 57902 55800.00000 0 -24627325.439 685808.619 -6791333.365 10 0 57902 56700.00000 0 -25278664.728 838686.111 -3645518.928 10 0 57902 57600.00000 0 -25526510.982 1038045.012 -429265.818 10 0 57902 58500.00000 0 -25364572.839 1227428.366 2795279.030 10 0 57902 59400.00000 0 -24800093.263 1350587.397 5965763.021 10 0 57902 60300.00000 0 -23853555.832 1354088.437 9020819.391 10 0 57902 61200.00000 0 -22557859.531 1189806.518 11901244.143 10 0 57902 62100.00000 0 -20956994.749 817200.713 14551136.558 10 0 57902 63000.00000 0 -19104273.714 205274.871 16918981.755 10 0 57902 63900.00000 0 -17060187.235 -665860.123 18958654.426 10 0 57902 64800.00000 0 -14889975.339 -1803890.355 20630324.146 10 0 57902 65700.00000 0 -12661011.614 -3203718.013 21901244.179 10 0 57902 66600.00000 0 -10440109.386 -4847423.238 22746407.455 10 0 57902 67500.00000 0 -8290861.614 -6704773.826 23149055.810 10 0 57902 68400.00000 0 -6271125.562 -8734264.960 23101030.984 10 0 57902 69300.00000 0 -4430757.926 -10884648.564 22602958.800 10 0 57902 70200.00000 0 -2809696.068 -13096890.922 21664261.016 10 0 57902 71100.00000 0 -1436466.831 -15306478.526 20302992.739 10 0 57902 72000.00000 0 -327186.820 -17445976.501 18545506.799 10 0 57902 72900.00000 0 514902.842 -19447732.500 16425950.223 10 0 57902 73800.00000 0 1099346.994 -21246611.930 13985601.587 10 0 57902 74700.00000 0 1447835.697 -22782648.101 11272061.866 10 0 57902 75600.00000 0 1593039.899 -24003494.130 8338314.787 10 0 57902 76500.00000 0 1576973.990 -24866571.360 5241675.952 10 0 57902 77400.00000 0 1448956.481 -25340821.987 2042652.896 10 0 57902 78300.00000 0 1263257.810 -25407990.689 -1196259.645 10 0 57902 79200.00000 0 1076537.867 -25063380.576 -4411823.375 10 0 57902 80100.00000 0 945184.953 -24316051.765 -7541312.148 10 0 57902 81000.00000 0 922671.776 -23188455.260 -10523752.986 10 0 57902 81900.00000 0 1057042.935 -21715519.337 -13301126.292 10 0 57902 82800.00000 0 1388641.923 -19943229.199 -15819500.478 10 0 57902 83700.00000 0 1948174.660 -17926762.137 -18030078.334 10 0 57902 84600.00000 0 2755191.397 -15728258.882 -19890135.017 10 0 57902 85500.00000 0 3817050.280 -13414326.575 -21363830.283 99